Flag for USA

Past Weather in Killeen, Texas, USA — Yesterday and Last 2 Weeks

Now
91 °F

Hot.


Feels Like: 92 °F
Forecast: 100 / 73 °F
Wind: 10 mph from Southeast

Location: Killeen Municipal

Current Time: Jul 3, 2020 at 9:50:44 pm

Latest Report: Jul 3, 2020 at 8:56 pm


Visibility: 10 mi

Pressure: 29.89 "Hg

Humidity: 39%

Dew Point: 63 °F

Location of KilleenLocation

Past Weather in Killeen — Graph

°F

Killeen Temperature Yesterday

Maximum temperature yesterday: 99 °F (at 3:56 pm)
Minimum temperature yesterday: 79 °F (at 5:56 am)
Average temperature yesterday: 87 °F

High & Low Weather Summary for the Past Weeks

 TemperatureHumidityPressure
High101 °F (Jul 3, 4:56 pm)100% (Jun 20, 6:37 am)30.10 "Hg (Jun 20, 6:37 am)
Low66 °F (Jun 20, 4:56 am)24% (Jul 3, 5:56 pm)29.73 "Hg (Jun 28, 6:56 pm)
Average82 °F73%29.90 "Hg
* Reported Jun 18 7:56 pm — Jul 3 7:56 pm, Killeen. Weather by CustomWeather, © 2020

Note: Actual official high and low records may vary slightly from our data, if they occured in-between our weather recording intervals... More about our weather records

Killeen Weather History for the Previous 24 Hours

Scroll right to see more
 ConditionsComfort  
Time TempWeatherWind HumidityBarometerVisibility
7:56 pm
Fri, Jul 3
96 °FExtremely hot.9 mph32%29.88 "Hg10 mi
6:56 pm98 °FExtremely hot.9 mph27%29.87 "Hg10 mi
5:56 pm99 °FExtremely hot.5 mph24%29.86 "Hg10 mi
4:56 pm101 °FExtremely hot.9 mph26%29.88 "Hg10 mi
3:56 pm100 °FSunny.6 mph25%29.89 "Hg10 mi
2:56 pm98 °FSunny.9 mph29%29.92 "Hg10 mi
1:56 pm95 °FSunny.No wind36%29.96 "Hg9 mi
12:56 pm93 °FSunny.7 mph38%29.98 "Hg10 mi
11:56 am90 °FSunny.6 mph43%29.99 "Hg10 mi
10:56 am87 °FPassing clouds.8 mph51%29.99 "Hg10 mi
10:26 am86 °FScattered clouds.10 mph55%30.03 "Hg10 mi
9:56 am84 °FSunny.12 mph61%29.99 "Hg10 mi
8:56 am80 °FSunny.13 mph71%29.99 "Hg10 mi
7:56 am76 °FSunny.7 mph85%29.99 "Hg10 mi
6:56 am74 °FSunny.7 mph91%29.96 "Hg10 mi
5:56 am75 °FClear.8 mph88%29.94 "Hg10 mi
4:56 am76 °FClear.13 mph85%29.93 "Hg10 mi
3:56 am78 °FClear.10 mph76%29.93 "Hg10 mi
2:56 am80 °FClear.14 mph69%29.92 "Hg10 mi
1:56 am81 °FClear.12 mph72%29.93 "Hg10 mi
12:56 am83 °FClear.8 mph68%29.91 "Hg10 mi
11:56 pm
Thu, Jul 2
85 °FClear.8 mph59%29.92 "Hg10 mi
10:56 pm86 °FClear.7 mph55%29.92 "Hg10 mi
9:56 pm87 °FClear.8 mph51%29.89 "Hg10 mi
Weather by CustomWeather, © 2020

See weather overview